Tracking 21082 objects as of 5-Aug-2020
HD Live streaming from Space Station
objects crossing your sky now

FREGAT R/B

Track FREGAT R/B now!


NORAD ID: 40546
Int'l Code: 2015-017C
Perigee: 23,508.8 km
Apogee: 23,604.5 km
Inclination: 56.5 °
Period: 858.8 minutes
Semi major axis: 29927 km
RCS: Unknown
Launch date: March 27, 2015
Source: Commonwealth of Independent States (former USSR) (CIS)
Launch site: FRENCH GUIANA (FRGUI)

Note: This is a ROCKET BODY
aabbcc
Your satellite tracking list
Your tracking list is empty




NASA's NSSDC Master Catalog

Two Line Element Set (TLE):
1 40546U 15017C   20217.27205217 -.00000074 +00000-0 +00000-0 0  9993
2 40546 056.4911 041.9868 0015994 193.4626 166.5375 01.67684918032808
Source of the keplerian elements: AFSPC